Temp
83 84 81 86 86 83 81 78 76 81 82 79 79 79 79 80 79 80 81 82 84 85 90 90 89 89 87 87 85 84 83 81 82 81 80 78 76 81 77 81 80 80 82 82
82 80 87 84 83 82 80 77 77 81 81 79 78 78 81 79 79 81 82 81 83 86 87 86 88 89 88 86 84 83 83 80 81 81 75 82 82 83 75 76 78 80 81 80
80 83 83 83 80 80 79 78 78 78 77 79 77 79 76 78 80 81 83 85 86 85 86 87 87 87 88 84 84 83 82 81 80 81 80 76 81 76 74 74 75 79 80 78
79 81 80 80 80 82 78 83 83 79 77 73 77 71 81 77 75 78 81 83 85 86 88 88 87 88 88 86 84 84 82 81 81 81 80 79 78 76 76 75 78 74 78 81
76 76 77 77 81 83 80 83 81 80 77 74 74 72 81 76 78 78 80 83 85 87 88 89 87 89 90 88 84 84 81 80 81 80 81 82 78 81 81 77 74 73 73 75
79 81 82 82 83 84 85 80 76 75 75 69 74 74 78 80 80 83 84 83 85 87 88 89 90 90 89 88 85 84 80 80 80 80 80 80 79 80 79 78 77 76 76 77
75 79 82 83 80 83 81 79 69 66 66 67 71 71 79 89 89 85 86 86 85 88 87 87 88 88 85 85 85 84 81 78 79 80 80 80 80 80 80 79 79 77 77 78
69 68 77 82 82 80 80 80 70 59 63 69 68 68 79 89 89 85 83 85 87 87 89 87 87 87 84 85 84 82 80 79 79 79 79 79 79 80 82 80 81 80 79 78
67 67 78 79 82 84 76 73 80 73 66 67 74 74 81 89 89 87 84 85 84 84 88 88 88 87 84 83 83 82 80 79 79 80 79 78 79 79 80 79 78 78 76 75
72 66 78 82 82 80 81 81 72 72 61 59 68 67 76 82 84 88 84 85 84 84 85 87 87 85 83 85 83 82 81 80 80 81 81 81 80 76 77 75 75 75 74 73
75 70 73 76 76 77 77 76 72 74 71 65 64 71 85 83 86 87 88 85 85 83 83 84 85 85 83 84 82 82 81 80 80 81 81 79 78 75 75 75 74 73 72 71
73 72 67 73 76 76 80 80 80 69 66 67 68 71 91 86 90 85 85 84 87 85 85 85 85 83 81 80 81 81 80 80 82 80 78 78 76 74 72 73 74 73 70 69
74 69 65 70 74 76 74 75 81 76 74 67 67 72 87 83 83 83 81 84 83 82 83 83 83 80 79 80 79 80 80 80 80 77 79 76 74 73 71 72 72 71 68 67
71 70 67 64 66 71 67 72 72 77 71 72 71 77 83 85 82 81 83 84 82 80 81 81 81 79 79 80 79 79 80 79 78 79 74 73 72 71 72 72 71 69 68 67
74 67 67 70 70 67 69 70 72 70 76 70 78 73 81 80 78 78 79 83 81 80 80 80 81 79 78 78 78 79 79 77 73 69 69 71 72 71 69 69 67 67 67 67
72 66 65 67 70 70 69 72 72 72 74 72 74 73 77 78 78 77 77 80 82 82 81 80 80 78 78 77 76 74 73 71 69 67 67 68 68 67 66 66 65 65 65 64
67 67 65 61 68 69 68 69 70 72 71 73 71 76 76 75 76 76 76 77 80 83 81 81 80 79 78 77 75 71 72 72 71 70 67 65 65 65 63 65 64 63 63 64
66 63 64 62 66 56 71 75 72 71 71 72 73 74 74 74 77 79 80 78 79 82 81 81 81 81 79 77 74 74 74 72 70 69 68 66 66 63 63 63 63 63 64 64
68 64 61 58 61 66 70 73 71 69 71 73 72 74 75 77 79 78 78 80 79 83 83 83 83 81 77 73 75 74 73 71 70 69 68 67 67 65 65 63 63 64 65 65
65 65 63 59 56 54 71 73 75 74 65 75 74 73 72 77 78 80 79 78 79 83 85 83 82 77 71 72 76 75 72 71 69 69 68 68 68 66 64 64 64 65 66 67
62 60 58 61 58 65 70 72 73 62 66 74 74 73 72 72 74 76 78 78 80 82 82 81 77 72 71 72 76 75 72 69 70 70 67 68 68 67 67 65 66 66 66 67
61 60 58 58 55 54 72 72 63 63 74 73 74 74 72 74 78 77 75 75 76 76 75 75 72 71 71 73 76 72 66 67 67 68 66 67 67 69 68 65 65 65 65 65
56 63 62 62 64 68 70 71 73 72 68 72 72 75 74 73 75 75 72 71 71 71 70 72 71 67 68 71 68 63 62 62 62 64 67 66 65 67 66 65 65 66 66 69
63 61 59 60 69 68 71 72 72 73 72 73 77 75 75 73 75 75 74 72 70 69 68 68 66 65 65 66 67 66 63 62 63 62 64 63 65 65 66 68 68 69 68 69
66 61 61 61 65 68 70 70 72 71 74 74 74 76 76 74 75 76 73 71 69 68 68 67 65 64 64 67 67 66 63 63 62 62 63 65 69 66 66 68 69 69 70 69
65 63 60 61 71 68 69 72 74 71 72 75 74 74 78 76 74 76 74 73 71 69 71 71 70 70 70 71 68 64 64 64 62 62 64 67 67 66 68 68 66 54 56 53
MSLP
1003.58 1003.20 1002.81 1002.81 1003.26 1003.57 1003.77 1004.08 1004.20 1004.09 1004.48 1004.85 1004.65 1004.72 1005.35 1006.14 1007.19 1007.45 1007.59 1007.87 1007.99 1007.87 1007.94 1009.00 1009.75 1010.38 1010.93 1011.47 1012.09 1012.59 1013.18 1013.64 1014.11 1014.55 1014.96 1015.53 1015.69 1015.84 1016.08 1016.16 1016.51 1016.58 1016.37 1016.40
1003.78 1003.04 1002.78 1003.28 1003.51 1003.53 1003.65 1003.71 1003.79 1003.91 1004.18 1004.58 1004.24 1004.05 1004.41 1005.31 1005.43 1006.06 1006.59 1006.87 1007.05 1007.15 1007.60 1008.22 1008.80 1009.47 1010.17 1010.78 1011.44 1012.16 1012.66 1013.36 1013.75 1014.06 1014.67 1014.99 1015.43 1015.65 1015.98 1015.94 1016.31 1016.25 1016.33 1016.58
1003.15 1003.07 1003.21 1003.24 1003.44 1003.37 1003.32 1003.37 1003.48 1003.74 1004.13 1004.29 1004.01 1002.80 1003.48 1004.37 1005.00 1005.75 1005.93 1006.14 1006.35 1006.36 1006.71 1007.21 1007.94 1008.58 1009.38 1010.16 1010.79 1011.53 1012.17 1012.81 1013.35 1013.78 1014.50 1015.06 1015.32 1015.73 1015.78 1016.01 1016.23 1016.03 1016.06 1016.39
1003.85 1003.71 1003.41 1003.22 1003.06 1003.20 1002.86 1003.23 1003.22 1003.41 1003.71 1003.63 1004.01 1002.74 1002.01 1003.15 1003.81 1004.38 1004.66 1005.04 1005.20 1005.56 1005.96 1006.51 1007.05 1007.72 1008.43 1009.23 1010.35 1010.95 1011.79 1012.49 1013.03 1013.45 1013.89 1014.43 1014.83 1015.20 1015.50 1015.89 1015.97 1016.24 1016.13 1016.02
1004.04 1003.93 1003.63 1003.26 1002.98 1003.14 1002.91 1003.22 1003.31 1003.28 1003.39 1003.67 1003.53 1003.22 1001.34 1002.15 1002.02 1002.47 1003.05 1003.53 1003.95 1004.40 1005.04 1005.44 1006.17 1006.75 1007.67 1008.73 1009.63 1010.45 1011.38 1012.15 1012.66 1013.10 1013.43 1013.97 1014.55 1014.96 1015.35 1015.88 1016.14 1016.48 1016.61 1016.53
1003.99 1004.04 1003.64 1003.11 1003.04 1003.03 1003.17 1003.36 1003.58 1003.69 1003.46 1002.96 1002.69 1002.47 1000.55 1000.62 1000.35 1000.92 1001.64 1002.39 1002.89 1003.38 1004.12 1004.78 1005.39 1006.52 1007.21 1008.25 1009.17 1010.07 1010.97 1011.59 1012.20 1012.87 1013.33 1013.68 1014.09 1014.66 1015.07 1015.47 1015.93 1016.50 1016.63 1016.53
1004.07 1003.58 1003.34 1003.25 1003.09 1003.10 1003.11 1002.92 1002.82 1003.00 1002.90 1002.25 1002.74 1002.27 1000.33 999.39 999.49 1000.30 1000.70 1001.13 1001.75 1002.37 1003.25 1004.07 1004.82 1005.68 1006.67 1007.58 1008.49 1009.53 1010.46 1011.28 1011.73 1012.38 1013.15 1013.60 1014.05 1014.56 1014.87 1015.14 1015.44 1015.97 1016.19 1016.32
1004.18 1003.52 1003.19 1002.85 1002.40 1002.27 1002.48 1002.58 1002.19 1001.86 1002.25 1002.10 1002.70 1001.36 999.88 999.26 999.38 999.88 1000.36 1000.75 1001.05 1001.73 1002.46 1003.29 1004.08 1005.01 1005.93 1006.81 1007.91 1008.90 1009.86 1010.73 1011.36 1011.87 1012.61 1013.40 1013.97 1014.34 1014.55 1014.91 1015.09 1015.57 1016.01 1016.50
1004.56 1003.88 1003.22 1002.94 1002.54 1002.41 1002.72 1002.72 1002.68 1002.02 1003.01 1002.33 1001.38 1000.98 1000.00 998.96 998.70 999.10 999.62 1000.16 1000.71 1001.31 1001.84 1002.62 1003.60 1004.54 1005.51 1006.33 1007.22 1008.18 1009.31 1010.22 1011.03 1011.41 1012.25 1013.02 1013.79 1014.20 1014.35 1014.85 1015.22 1015.85 1016.42 1016.80
1005.08 1004.31 1003.19 1002.61 1002.75 1002.85 1002.36 1002.46 1002.55 1002.38 1001.96 1001.51 1000.92 1000.48 999.24 998.65 998.40 998.72 999.31 999.69 1000.34 1001.10 1001.68 1002.39 1003.28 1004.21 1005.10 1006.00 1007.14 1008.12 1008.96 1009.50 1010.22 1010.94 1011.79 1012.49 1013.36 1014.10 1014.50 1014.90 1015.19 1015.82 1016.35 1016.85
1005.43 1005.03 1003.60 1003.23 1002.48 1002.26 1002.60 1002.28 1002.55 1002.28 1001.95 1001.05 1000.44 999.36 998.81 998.30 998.25 998.42 998.76 999.58 1000.29 1000.97 1001.47 1002.08 1002.86 1003.91 1005.00 1005.85 1006.78 1007.59 1008.45 1009.25 1010.04 1010.69 1011.54 1012.36 1013.25 1014.07 1014.67 1015.13 1015.63 1016.22 1016.75 1017.28
1006.10 1005.17 1003.83 1002.72 1002.69 1002.71 1002.07 1001.57 1001.64 1001.56 1001.71 1001.62 1000.65 999.06 998.31 998.42 998.45 998.80 998.80 999.53 999.96 1000.56 1001.18 1001.89 1002.66 1003.68 1004.73 1005.56 1006.34 1007.15 1008.14 1009.09 1009.99 1010.92 1012.00 1012.80 1013.59 1014.27 1014.85 1015.47 1016.07 1016.46 1017.01 1017.72
1006.18 1005.53 1004.16 1002.69 1003.01 1002.93 1002.46 1002.15 1001.45 1001.50 1001.59 1000.67 999.95 998.69 998.42 998.78 998.96 999.25 999.18 999.88 1000.16 1000.74 1001.19 1001.78 1002.53 1003.28 1004.21 1005.02 1006.04 1007.08 1008.17 1009.21 1010.14 1011.09 1012.15 1013.08 1013.88 1014.65 1015.26 1015.67 1016.32 1016.97 1017.25 1017.78
1006.63 1005.71 1004.74 1003.99 1003.71 1003.50 1002.89 1002.28 1002.15 1001.41 1000.59 1000.04 999.55 998.86 998.68 998.60 999.05 999.29 999.18 999.38 1000.00 1000.50 1001.32 1001.77 1002.41 1003.17 1004.03 1004.91 1006.06 1007.14 1008.18 1009.49 1010.36 1011.36 1012.59 1013.31 1014.00 1014.86 1015.39 1016.00 1016.52 1017.22 1017.63 1017.83
1006.73 1005.64 1005.25 1004.48 1004.08 1003.75 1002.86 1002.26 1001.92 1001.58 1000.49 1000.20 999.11 999.18 998.82 999.35 999.60 999.53 999.59 999.24 999.61 1000.03 1000.65 1001.42 1002.06 1002.87 1003.98 1005.07 1006.03 1006.96 1007.96 1009.12 1010.22 1011.32 1012.20 1013.10 1013.79 1014.77 1015.74 1016.46 1016.99 1017.61 1018.09 1018.19
1006.99 1006.09 1005.65 1004.41 1003.88 1003.48 1002.46 1002.00 1001.68 1001.48 1001.17 1000.68 1000.30 1000.02 1000.09 1000.22 1000.04 999.92 999.75 999.35 999.07 999.39 999.86 1000.84 1002.07 1002.96 1003.67 1004.56 1005.43 1006.39 1007.27 1008.29 1008.71 1008.84 1007.99 1010.98 1012.80 1014.10 1015.28 1016.18 1016.81 1017.30 1018.02 1018.17
1007.34 1006.58 1005.75 1004.40 1003.87 1002.92 1001.96 1001.94 1001.78 1001.34 1001.39 1000.88 1000.51 1000.34 1000.58 1000.04 999.99 999.94 999.73 999.63 999.16 999.11 999.61 1000.17 1001.23 1002.25 1002.94 1003.80 1004.54 1005.52 1006.65 1007.77 1008.96 1009.93 1010.76 1010.93 1011.59 1013.59 1014.99 1016.21 1016.72 1017.23 1017.59 1018.47
1007.24 1007.03 1006.47 1004.91 1004.11 1002.67 1001.66 1001.93 1002.07 1001.85 1001.85 1001.71 1001.45 1001.39 1001.26 1000.64 1000.02 999.88 999.78 999.53 999.31 999.00 999.16 999.80 1000.37 1001.42 1002.64 1003.37 1004.61 1005.70 1006.56 1007.62 1008.82 1010.08 1011.40 1011.85 1012.92 1013.19 1014.43 1015.80 1016.55 1017.08 1017.55 1018.21
1007.17 1007.16 1006.47 1005.44 1004.07 1002.84 1002.02 1001.65 1001.94 1002.20 1002.04 1002.24 1001.95 1001.77 1001.39 1000.57 999.67 999.71 999.82 999.82 999.67 999.06 999.28 999.71 1000.30 1001.31 1002.59 1003.38 1004.16 1005.07 1006.30 1007.84 1008.84 1009.92 1010.96 1011.42 1012.58 1013.21 1013.95 1015.27 1016.27 1016.77 1017.28 1017.93
1007.36 1007.42 1006.61 1006.00 1004.41 1002.96 1001.90 1002.51 1002.53 1002.63 1002.37 1002.36 1002.51 1002.21 1001.83 1000.75 999.52 999.53 999.72 999.66 999.33 998.95 999.10 999.76 1000.68 1002.06 1003.16 1004.07 1005.02 1005.59 1006.07 1006.89 1008.53 1009.99 1011.15 1011.80 1012.52 1012.44 1013.51 1015.11 1016.15 1016.38 1017.07 1017.50
1007.13 1007.14 1006.39 1005.44 1004.53 1003.26 1003.20 1003.27 1003.60 1003.18 1003.48 1002.97 1002.91 1002.69 1002.30 1001.81 1001.62 1000.92 1000.40 999.93 999.37 999.18 999.74 1000.61 1001.53 1002.31 1003.10 1003.96 1004.68 1005.84 1007.26 1008.17 1009.08 1009.98 1010.70 1011.09 1013.34 1013.54 1013.56 1014.85 1015.72 1016.18 1016.70 1017.31
1006.70 1006.38 1006.03 1005.70 1004.80 1003.86 1003.81 1003.65 1004.35 1004.61 1003.11 1004.11 1002.89 1002.85 1002.69 1002.29 1001.47 1001.13 1000.86 1000.45 1000.20 1000.32 1000.85 1001.43 1002.13 1002.80 1003.40 1004.18 1004.94 1006.62 1008.10 1009.42 1010.91 1011.38 1011.60 1011.94 1012.94 1013.81 1013.78 1014.49 1015.41 1016.01 1016.54 1017.03
1007.19 1006.46 1006.01 1005.74 1004.69 1004.48 1004.68 1004.57 1004.48 1004.54 1004.59 1003.77 1003.11 1002.79 1002.83 1002.35 1001.69 1001.51 1001.27 1001.17 1001.33 1001.59 1002.00 1002.29 1002.66 1003.47 1004.33 1004.95 1005.46 1006.62 1008.02 1008.32 1009.84 1012.01 1012.12 1012.55 1013.02 1014.06 1013.74 1014.28 1015.36 1015.88 1016.18 1016.30
1006.88 1007.00 1006.57 1005.93 1004.39 1004.53 1004.56 1004.44 1004.57 1004.74 1004.26 1003.03 1003.53 1002.84 1002.88 1002.61 1002.00 1001.68 1001.67 1001.48 1001.96 1002.38 1002.63 1003.02 1003.41 1003.86 1004.60 1005.36 1005.72 1006.37 1007.39 1008.35 1009.19 1011.50 1011.77 1012.31 1013.36 1013.82 1013.63 1013.92 1014.71 1015.32 1015.63 1015.54
1007.09 1007.11 1006.21 1005.46 1004.80 1004.60 1004.40 1004.32 1004.35 1004.55 1004.40 1003.76 1002.78 1003.00 1002.96 1002.51 1001.99 1001.76 1002.03 1001.85 1002.06 1002.71 1003.28 1003.44 1003.67 1003.89 1004.53 1005.33 1005.78 1006.22 1006.46 1006.97 1006.22 1010.51 1011.17 1011.93 1012.80 1013.16 1013.35 1013.90 1014.57 1014.99 1015.41 1015.47
1006.81 1006.18 1005.89 1004.60 1004.40 1004.34 1004.04 1004.08 1004.31 1004.36 1004.19 1003.89 1003.49 1003.16 1002.88 1002.47 1001.98 1001.71 1001.92 1002.11 1002.17 1002.65 1002.98 1003.48 1003.93 1004.22 1004.56 1004.56 1005.28 1006.38 1007.13 1007.26 1007.91 1009.56 1010.53 1011.60 1011.96 1012.61 1012.88 1013.66 1014.63 1015.25 1015.26 1015.40
Wind_Speed
2 6 9 12 7 4 3 2 5 8 5 8 15 14 9 18 16 16 16 16 17 18 17 14 14 14 13 13 13 12 11 11 9 6 6 3 3 4 2 4 5 5 4 4
5 12 10 6 7 5 4 2 3 6 1 8 5 14 9 18 22 21 18 18 18 18 15 14 15 15 15 15 14 13 12 12 10 7 3 3 4 4 2 3 5 6 4 3
10 4 5 8 7 7 5 5 3 5 1 6 8 9 5 9 16 18 19 17 17 18 17 16 16 16 14 15 15 14 14 13 11 10 7 3 4 2 1 2 3 5 5 5
4 2 4 6 7 8 14 10 6 4 4 5 2 8 10 6 12 19 21 22 21 19 18 15 14 16 16 15 12 13 13 12 11 13 10 9 5 4 2 3 4 4 5 5
4 4 6 7 8 8 4 5 5 4 3 4 5 5 9 1 7 18 22 24 23 21 19 18 17 17 14 13 13 13 13 12 12 12 11 9 6 4 4 4 7 5 5 5
1 1 2 2 2 9 5 4 3 2 2 7 2 7 11 4 8 2 8 21 24 23 20 19 16 11 13 13 14 13 14 14 12 12 12 12 10 7 7 7 6 5 4 4
2 6 3 4 5 3 4 7 7 7 7 8 2 6 10 15 13 10 10 9 20 23 21 19 18 15 15 17 16 14 15 14 14 14 13 12 9 8 8 8 6 7 5 4
4 6 8 8 15 10 11 13 9 14 10 9 4 7 6 12 13 7 6 8 12 18 19 20 20 17 16 17 17 16 16 14 14 14 13 11 9 6 7 8 7 6 5 5
5 5 3 6 3 8 7 8 4 6 1 4 3 5 12 13 16 7 7 7 9 14 19 20 18 16 15 17 18 18 16 14 14 14 12 12 10 9 7 8 8 6 7 7
1 6 6 2 5 3 5 8 6 2 7 10 5 4 6 5 9 5 5 9 10 13 16 15 15 16 15 15 14 15 16 16 15 14 13 12 10 8 8 9 10 9 8 8
2 3 2 3 8 12 6 5 2 2 3 7 9 5 9 11 11 10 6 8 10 13 15 16 15 14 13 14 15 16 16 16 15 14 13 13 11 11 10 9 10 9 9 7
2 2 5 6 1 5 8 14 13 9 10 3 5 8 7 11 10 8 10 4 10 12 14 15 15 15 15 16 16 17 16 15 14 12 11 11 11 11 11 10 10 10 9 6
1 2 5 4 5 3 3 3 9 6 3 10 11 7 4 2 6 8 12 3 7 11 13 14 15 16 17 17 17 17 15 15 14 14 13 12 12 11 10 11 10 9 9 8
3 3 3 3 6 6 8 7 7 15 10 14 12 13 11 7 7 8 11 7 8 13 13 14 15 15 16 16 17 16 16 15 15 13 11 12 12 11 10 10 10 9 8 8
4 7 4 8 10 5 7 11 8 15 13 11 11 12 7 4 12 10 10 10 8 14 16 16 16 16 16 16 17 17 18 17 16 14 12 13 13 11 11 10 10 9 7 6
1 5 3 8 5 8 11 6 8 12 13 10 11 13 3 14 10 9 10 10 12 13 15 15 14 16 18 19 19 18 19 19 20 20 23 19 16 15 13 12 11 10 8 8
5 5 4 8 4 11 10 3 6 4 3 3 6 5 13 15 13 11 10 11 12 13 13 17 18 18 19 22 20 21 20 19 17 16 14 17 18 16 12 12 11 9 10 8
9 5 4 8 7 10 3 4 2 2 1 1 4 9 12 15 16 15 8 9 11 12 15 16 17 19 19 19 21 20 20 18 17 16 14 14 14 15 14 12 10 10 9 9
16 7 5 6 8 7 7 6 4 3 3 2 5 9 12 15 11 5 7 12 12 12 13 14 15 17 18 18 21 21 19 17 16 16 17 17 16 16 16 14 13 11 10 9
8 5 5 3 7 8 3 5 3 7 6 2 4 7 12 13 7 5 21 19 14 9 10 13 15 14 13 15 19 19 19 19 16 16 16 15 15 17 17 14 13 11 10 9
4 4 9 8 7 7 2 9 2 7 5 5 7 8 11 8 5 16 17 15 10 4 7 10 14 14 15 16 20 18 14 11 13 16 15 18 13 14 15 15 12 11 11 9
5 4 4 2 5 9 3 8 3 5 5 12 8 8 11 13 13 12 11 11 9 5 8 12 12 12 13 16 17 13 10 10 7 8 12 13 14 11 11 14 12 11 10 10
5 5 3 5 2 4 5 7 5 6 9 8 10 12 12 13 14 12 8 8 6 7 6 7 8 10 10 11 13 17 15 16 15 10 13 13 12 10 12 13 11 10 10 9
4 3 4 3 3 6 4 4 5 5 8 13 13 13 13 11 13 10 6 5 4 6 7 9 10 11 11 12 14 15 12 13 13 11 13 11 12 11 11 10 10 10 10 9
4 4 4 7 9 9 6 7 3 6 11 14 11 11 13 10 11 7 5 2 5 6 8 10 10 12 13 14 14 16 16 17 23 14 11 12 11 12 11 10 9 9 9 8
9 13 10 12 9 5 7 10 8 9 10 14 12 14 13 9 10 7 5 4 5 6 8 8 11 13 14 15 14 12 12 15 15 13 11 11 11 10 10 10 9 3 2 8
Wind_Direction
54 218 213 218 200 156 188 197 301 297 207 226 238 256 209 185 201 209 204 207 208 216 218 209 211 215 210 208 205 204 195 181 172 157 163 172 191 188 202 197 200 201 177 183
163 222 219 121 169 199 205 235 295 292 251 222 286 264 234 194 203 206 208 210 213 222 214 211 211 207 211 206 202 200 200 184 186 169 134 144 174 194 187 174 194 200 194 213
202 194 168 182 165 200 220 246 235 290 170 254 297 278 195 204 215 212 222 222 222 221 223 214 208 207 205 207 197 194 194 188 183 172 147 104 140 105 228 149 183 197 179 193
228 345 186 196 213 206 264 210 246 258 252 316 309 302 298 180 204 212 215 218 221 220 224 221 215 206 204 209 194 190 190 184 185 174 165 171 180 174 217 129 144 98 117 127
132 169 184 215 231 187 270 169 249 258 241 248 190 252 277 242 254 224 216 215 219 215 218 217 214 209 204 196 187 185 180 183 184 181 177 182 184 184 149 125 109 98 91 105
207 314 250 174 292 213 126 173 84 78 201 256 41 237 282 280 244 345 210 218 217 215 213 220 218 199 196 184 178 176 178 183 183 185 182 188 185 181 165 152 146 145 134 112
297 231 202 177 233 253 199 215 238 227 220 259 70 206 255 287 271 278 281 221 213 212 208 209 208 193 187 183 180 177 178 186 183 184 191 192 185 193 194 178 163 165 154 143
266 252 204 175 215 219 215 230 231 244 234 244 141 215 245 266 286 271 255 250 218 209 208 205 204 196 189 183 180 178 182 184 186 185 188 183 184 202 198 191 169 171 154 135
196 251 282 227 222 209 157 210 296 232 60 259 223 244 276 267 273 261 246 220 198 199 202 204 198 196 189 185 183 180 177 179 186 181 179 178 182 192 181 162 153 143 136 132
112 272 245 215 184 68 255 137 190 221 234 245 218 247 248 252 267 286 264 215 194 192 195 196 193 189 189 187 178 174 177 177 177 177 179 178 181 170 158 150 141 145 134 126
198 235 186 225 204 217 199 208 89 236 250 259 259 241 224 241 254 276 271 241 201 188 191 189 189 187 183 178 174 173 174 168 170 173 172 165 158 148 146 141 138 135 128 131
15 252 265 262 45 317 283 240 232 237 218 251 282 247 286 249 280 280 279 251 211 197 188 185 179 172 173 176 176 173 165 163 165 158 158 151 142 142 139 136 131 134 125 123
142 249 281 262 140 136 254 229 236 228 250 224 245 245 248 296 299 288 282 315 218 200 187 179 178 178 178 177 174 166 160 160 155 150 151 143 141 138 135 135 134 131 131 131
225 210 269 298 301 305 281 263 241 244 233 240 239 256 267 244 309 323 303 271 208 189 195 190 184 182 180 175 169 160 155 148 145 141 143 144 146 146 144 139 138 142 138 134
321 267 206 272 276 227 261 266 258 228 246 231 265 209 260 328 324 320 302 281 216 193 189 193 188 177 172 167 165 160 152 150 136 140 147 157 147 142 134 139 134 131 131 125
2 280 231 283 215 267 291 273 244 237 243 253 264 274 343 316 310 309 305 276 240 210 193 186 186 173 170 168 163 156 153 155 161 178 154 154 151 143 145 147 142 138 135 143
277 271 249 266 314 306 263 344 273 237 228 235 248 309 322 314 311 318 311 295 264 233 199 183 181 180 175 173 164 163 161 161 161 165 161 151 146 144 143 143 146 149 150 154
246 249 272 277 298 246 113 98 264 264 94 338 306 316 313 304 301 305 322 300 278 239 205 193 185 181 181 171 170 164 162 163 165 164 161 140 147 134 139 151 157 153 151 156
223 215 241 254 235 303 267 188 174 239 197 332 335 338 327 321 296 181 40 359 329 264 222 202 191 177 174 173 171 165 161 157 165 167 162 151 158 151 150 157 164 157 156 164
160 212 243 199 240 260 337 46 44 144 233 84 0 351 341 339 340 357 338 332 322 280 215 195 180 170 158 170 172 166 164 164 168 162 162 161 168 154 152 158 169 162 170 166
191 180 219 222 247 254 354 342 348 202 53 3 358 348 343 349 325 308 326 337 331 280 186 168 164 168 168 168 173 171 160 157 155 160 165 157 169 162 153 160 167 164 168 165
249 237 215 190 230 250 27 123 224 326 20 309 334 326 318 317 324 337 351 3 18 78 135 161 164 166 164 168 164 137 117 96 110 155 148 154 156 175 158 157 164 166 166 171
246 233 284 234 272 23 344 323 316 290 282 307 315 319 315 315 325 333 359 28 51 102 127 153 142 131 142 156 129 122 129 130 142 180 170 163 161 178 158 158 166 171 175 176
232 174 245 271 238 227 294 291 275 290 306 329 313 329 317 311 318 319 333 47 96 119 118 115 123 132 130 130 140 142 163 150 129 167 164 155 175 173 163 167 174 187 189 184
289 168 239 252 263 276 252 226 260 319 311 316 332 333 325 321 317 315 304 116 140 134 138 139 145 152 150 150 151 163 170 165 140 162 161 168 176 177 168 181 186 191 196 197
221 242 239 254 269 261 256 306 296 297 304 315 303 313 318 322 312 300 260 226 154 165 172 183 181 181 183 178 167 162 163 156 142 149 153 176 170 178 174 178 181 227 232 173